Weather History for Nuiqsut, AK

Change the Weather History Date:

Thursday, October 17, 2013

  Actual Average (PAKU) Record (PAKU)
Temperature  
Mean Temperature 32 °F -  
Max Temperature 36 °F 19 °F 38 °F (1984)
Min Temperature 28 °F 10 °F -2 °F (1986)
Degree Days  
Heating Degree Days 34    
Moisture  
Dew Point 30 °F    
Average Humidity 94    
Maximum Humidity 100    
Minimum Humidity 88    
Precipitation  
Precipitation 0.01 in - - ()
Sea Level Pressure  
Sea Level Pressure 29.66 in    
Wind  
Wind Speed 6 mph (ESE)    
Max Wind Speed 10 mph    
Max Gust Speed -    
Visibility 10 miles    
Events      
Averages and records for this station are not official NWS values.
T = Trace of Precipitation, MM = Missing Value Source: NWS Daily Summary

Daily Weather History Graph

Daily Weather History Graph

Search for Another Location

Airport:

Trip Planner

Search our weather history database for the weather conditions in past years. The results will help you decide how hot, cold, wet, or windy it might be!

Date:

Astronomy

Oct. 17, 2013 Rise Set
Actual Time 9:28 AM AKDT 6:07 PM AKDT
Civil Twilight 8:23 AM AKDT 7:12 PM AKDT
Nautical Twilight 7:12 AM AKDT 8:23 PM AKDT
Astronomical Twilight 5:58 AM AKDT 9:36 PM AKDT
Moon 5:41 PM AKDT (10/17) 7:44 AM AKDT (10/17)
Length of Visible Light 10h 48m
Length of Day
8h 38m
Waxing Gibbous, 98% of the Moon is Illuminated
Oct 17
Waxing Gibbous
Oct 18
Full
Oct 26
Last Quarter
Nov 3
New
Nov 9
First Quarter

Hourly Weather History & Observations

Time (AKDT) Temp. Windchill Dew Point Humidity Pressure Visibility Wind Dir Wind Speed Gust Speed Precip Events Conditions
12:53 AM 28.0 °F 18.6 °F 27.0 °F 96% 29.83 in 10.0 mi East 10.4 mph - N/A   Overcast
1:53 AM 28.9 °F 21.1 °F 28.0 °F 96% 29.82 in 10.0 mi East 8.1 mph - N/A   Overcast
2:53 AM 28.9 °F 21.9 °F 28.9 °F 100% 29.81 in 10.0 mi East 6.9 mph - 0.00 in   Partly Cloudy
3:53 AM 28.9 °F 22.8 °F 28.0 °F 96% 29.80 in 10.0 mi East 5.8 mph - N/A   Partly Cloudy
4:53 AM 30.0 °F - 30.0 °F 100% 29.80 in 10.0 mi Calm Calm - N/A   Scattered Clouds
5:53 AM 30.0 °F - 28.9 °F 96% 29.78 in 10.0 mi Calm Calm - N/A   Clear
6:53 AM 30.0 °F 26.5 °F 30.0 °F 100% 29.76 in 10.0 mi ESE 3.5 mph - N/A   Partly Cloudy
7:53 AM 30.0 °F 25.2 °F 28.9 °F 96% 29.75 in 10.0 mi ENE 4.6 mph - N/A   Partly Cloudy
8:53 AM 30.9 °F 26.2 °F 30.0 °F 96% 29.74 in 10.0 mi East 4.6 mph - N/A   Mostly Cloudy
9:53 AM 30.9 °F - 30.0 °F 96% 29.73 in 10.0 mi Calm Calm - 0.00 in   Overcast
10:53 AM 30.9 °F 26.2 °F 28.9 °F 92% 29.73 in 10.0 mi East 4.6 mph - 0.00 in   Overcast
11:53 AM 32.0 °F 28.7 °F 30.9 °F 96% 29.71 in 10.0 mi East 3.5 mph - N/A   Overcast
12:53 PM 30.9 °F 25.2 °F 30.0 °F 96% 29.69 in 10.0 mi East 5.8 mph - N/A   Mostly Cloudy
1:53 PM 30.9 °F 25.2 °F 28.9 °F 92% 29.67 in 10.0 mi East 5.8 mph - N/A   Partly Cloudy
2:53 PM 32.0 °F 26.4 °F 28.9 °F 88% 29.64 in 10.0 mi East 5.8 mph - N/A   Clear
3:53 PM 32.0 °F 27.5 °F 30.0 °F 92% 29.62 in 10.0 mi ESE 4.6 mph - N/A   Clear
4:53 PM 32.0 °F 24.8 °F 30.0 °F 92% 29.58 in 10.0 mi ENE 8.1 mph - N/A   Clear
5:53 PM 33.1 °F 27.7 °F 30.9 °F 92% 29.56 in 10.0 mi ESE 5.8 mph - N/A   Clear
6:53 PM 33.1 °F 27.7 °F 32.0 °F 96% 29.54 in 10.0 mi East 5.8 mph - N/A   Overcast
7:53 PM 33.1 °F 27.7 °F 32.0 °F 96% 29.51 in 10.0 mi ESE 5.8 mph - N/A   Mostly Cloudy
8:53 PM 34.0 °F 28.8 °F 32.0 °F 92% 29.49 in 10.0 mi ESE 5.8 mph - N/A   Overcast
9:53 PM 35.1 °F 31.0 °F 33.1 °F 92% 29.47 in 10.0 mi South 4.6 mph - N/A   Overcast
10:53 PM 35.1 °F 29.3 °F 32.0 °F 89% 29.46 in 10.0 mi South 6.9 mph - N/A   Overcast
11:53 PM 36.0 °F 30.3 °F 33.1 °F 89% 29.45 in 10.0 mi South 6.9 mph - 0.01 in   Scattered Clouds